Simultaneous Nadir Overpasses (SNOs) Predictions

Prediction of SNOs between GOES-15 and NPP Satellite Orbit:

Table of predicted SNOs for the next 14.0 days since TLE Epoch: 12/20/2013
Index Date Time (GOES-15) GOES-15 Lat,Lon NPP Lat,Lon Distance(km) Time Diff (sec)
1 12/20/2013 22:13:50 0.08,-135.06 0.87,-131.49 406.12 80
2 12/22/2013 10:33:00 -0.10,-135.05 0.29,-136.77 195.94 80
3 12/23/2013 10:16:57 -0.09,-135.02 -0.71,-132.23 317.16 80
4 12/24/2013 22:36:15 0.11,-134.93 -0.48,-137.54 297.24 80
5 12/25/2013 22:20:11 0.10,-134.89 0.52,-133.00 215.40 80
6 12/27/2013 10:39:22 -0.11,-134.87 0.63,-138.28 387.92 80
7 12/28/2013 10:23:17 -0.10,-134.83 -0.32,-133.74 124.39 80
8 12/29/2013 22:42:36 0.12,-134.73 -0.86,-139.04 491.21 80
9 12/30/2013 22:26:32
